GW7420 Weather Reports


time (UTC)temp
C
wind
direction
speed
KPH
gust
KPH
rain 1hr
cm
rain 24hr
cm
rain mn
cm
humidity
%
barometer
mb
20260906131757 23 165 0.0 3.2 0.00 1.57 0.05 92 30.0
20260906131257 23 351 0.0 0.0 0.00 1.57 0.05 92 30.0
20260906130757 23 360 0.0 0.0 0.00 1.57 0.05 93 30.0
20260906130257 23 304 0.0 1.6 0.00 1.57 0.05 93 30.0
20260906125757 23 360 0.0 0.0 0.00 1.57 0.05 93 30.0
20260906125258 22 281 0.0 1.6 0.00 1.57 0.05 91 30.0
20260906124757 22 313 1.6 1.6 0.00 1.57 0.05 92 30.0
20260906124257 22 294 0.0 3.2 0.00 1.57 0.05 94 30.0
20260906123757 22 317 0.0 1.6 0.00 1.57 0.05 95 30.0
20260906123256 22 360 0.0 0.0 0.00 1.57 0.05 96 30.0
20260906122758 22 360 0.0 0.0 0.00 1.57 0.05 96 30.0
20260906122257 22 360 0.0 0.0 0.00 1.57 0.05 96 30.0
20260906121757 22 56 0.0 0.0 0.00 1.57 0.05 96 30.0
20260906121259 22 309 0.0 1.6 0.00 1.57 0.05 97 30.0
20260906120757 22 360 0.0 0.0 0.00 1.57 0.05 97 30.0
20260906120257 22 296 1.6 1.6 0.00 1.57 0.05 97 30.0
20260906115756 22 360 0.0 0.0 0.00 1.57 0.05 97 30.0
20260906115257 22 285 0.0 1.6 0.00 1.57 0.05 97 30.0
20260906114757 22 360 0.0 0.0 0.00 1.57 0.05 97 30.0
20260906114258 22 360 0.0 0.0 0.00 1.57 0.05 97 30.0
20260906113756 22 360 0.0 0.0 0.00 1.57 0.05 97 30.0
20260906113257 22 360 0.0 0.0 0.00 1.57 0.05 96 30.0
20260906112756 22 360 0.0 0.0 0.00 1.57 0.05 96 30.0
20260906112257 22 360 0.0 0.0 0.00 1.57 0.05 96 30.0
20260906111757 22 360 0.0 0.0 0.00 1.57 0.05 95 30.0
20260906111256 22 360 0.0 0.0 0.00 1.57 0.05 95 30.0
20260906110756 22 292 0.0 0.0 0.00 1.57 0.05 95 30.0
20260906110257 22 301 1.6 3.2 0.00 1.57 0.05 95 30.0
20260906105757 22 5 0.0 3.2 0.00 1.57 0.05 96 30.0
20260906105256 22 280 1.6 3.2 0.00 1.57 0.05 95 30.0
20260906104756 22 360 0.0 0.0 0.00 1.57 0.05 96 29.9
20260906104257 22 360 0.0 0.0 0.00 1.57 0.05 96 29.9
20260906103756 22 308 0.0 1.6 0.00 1.57 0.05 96 29.9
20260906103256 22 360 0.0 0.0 0.00 1.57 0.05 96 29.9
20260906102756 22 360 3.2 3.2 0.00 1.57 0.05 96 29.9
20260906102256 22 360 0.0 0.0 0.03 1.57 0.05 96 29.9
20260906101756 22 360 0.0 0.0 0.05 1.57 0.05 95 29.9
20260906101257 22 329 0.0 1.6 0.05 1.57 0.05 95 29.9
20260906100757 22 360 0.0 0.0 0.05 1.57 0.05 95 29.9
20260906100258 22 3 1.6 3.2 0.05 1.57 0.05 94 29.9
20260906095757 22 360 0.0 0.0 0.05 1.57 0.05 93 29.9
20260906095257 22 356 0.0 1.6 0.05 1.57 0.05 93 29.9
20260906094757 22 296 0.0 1.6 0.05 1.57 0.05 93 29.9
20260906094256 22 360 0.0 0.0 0.05 1.57 0.05 94 29.9
20260906093756 23 241 0.0 3.2 0.05 1.57 0.05 94 29.9
20260906093256 23 298 3.2 6.4 0.05 1.57 0.05 96 29.9
20260906092757 23 4 3.2 4.8 0.00 1.57 0.05 97 29.9
20260906092257 23 360 0.0 0.0 0.00 1.57 0.05 97 29.9
20260906091756 22 90 0.0 0.0 0.00 1.55 0.03 97 29.9
20260906091256 22 162 0.0 0.0 0.00 1.52 0.00 97 29.9
20260906090756 22 113 0.0 1.6 0.00 1.52 0.00 97 29.9
20260906090257 22 360 0.0 0.0 0.00 1.52 0.00 96 29.9
20260906085756 22 360 0.0 0.0 0.00 1.52 0.00 95 29.9
20260906085256 23 360 0.0 0.0 0.00 1.52 0.00 95 29.9
20260906084756 23 81 0.0 0.0 0.00 1.52 0.00 95 29.9
20260906084257 23 360 0.0 0.0 0.00 1.52 0.00 96 29.9
20260906083757 23 360 0.0 0.0 0.00 1.52 0.00 95 29.9
20260906083256 23 360 0.0 0.0 0.00 1.52 0.00 96 29.9
20260906082756 23 360 0.0 0.0 0.00 1.52 0.00 97 30.0
20260906082257 23 169 0.0 3.2 0.00 1.52 0.00 95 30.0
20260906081756 23 231 0.0 3.2 0.00 1.52 0.00 98 30.0
20260906081259 23 130 0.0 3.2 0.00 1.52 0.00 97 30.0
20260906080756 23 257 0.0 0.0 0.00 1.52 0.00 97 30.0
20260906080257 23 299 0.0 1.6 0.00 1.52 0.00 97 30.0
20260906075757 23 360 0.0 0.0 0.00 1.52 0.00 97 30.0
20260906075257 23 295 1.6 3.2 0.00 1.52 0.00 97 30.0
20260906074758 23 360 0.0 0.0 0.00 1.52 0.00 98 30.0
20260906074256 23 288 3.2 6.4 0.00 1.52 0.00 98 30.0
20260906073756 23 360 0.0 0.0 0.00 1.52 0.00 98 30.0
20260906073256 23 300 0.0 3.2 0.00 1.52 0.00 98 30.0
20260906072756 23 295 0.0 0.0 0.00 1.52 0.00 98 30.0
20260906072257 23 360 0.0 0.0 0.00 1.52 0.00 99 30.0
20260906071756 23 360 0.0 0.0 0.00 1.52 0.00 99 30.0
20260906071256 23 360 0.0 0.0 0.00 1.52 0.00 99 30.0
20260906070756 23 360 0.0 0.0 0.00 1.52 0.00 98 30.0
20260906070256 23 360 0.0 0.0 0.00 1.52 0.00 98 30.0
20260906065756 23 360 0.0 0.0 0.00 1.52 0.00 98 30.0
20260906065258 23 360 0.0 0.0 0.00 1.52 0.00 98 30.0
20260906064757 23 360 0.0 0.0 0.00 1.52 0.00 98 30.0
20260906064256 23 360 0.0 0.0 0.00 1.52 0.00 98 30.0
20260906063756 23 360 0.0 0.0 0.00 1.52 0.00 98 30.0
20260906063256 23 360 0.0 0.0 0.00 1.52 0.00 98 30.0
20260906062756 23 360 0.0 0.0 0.00 1.52 0.00 98 30.0
20260906062256 23 145 0.0 1.6 0.00 1.52 0.00 98 30.0
20260906061757 23 360 0.0 0.0 0.00 1.52 0.00 98 30.0
20260906061258 23 360 0.0 0.0 0.00 1.52 0.00 98 30.0
20260906060756 23 360 0.0 0.0 0.00 1.52 0.00 98 30.0
20260906060257 23 360 0.0 0.0 0.00 1.52 0.00 98 30.0
20260906055757 23 360 0.0 0.0 0.00 1.52 0.00 98 29.9
20260906055256 23 360 0.0 0.0 0.00 1.52 0.00 98 29.9
20260906054756 23 360 0.0 0.0 0.00 1.52 0.00 98 29.9
20260906054258 23 360 0.0 0.0 0.00 1.52 0.00 98 29.9
20260906053756 23 360 0.0 0.0 0.00 1.52 0.00 98 29.9
20260906053256 23 360 0.0 0.0 0.00 1.52 0.00 98 29.9
20260906052757 23 360 0.0 0.0 0.00 1.52 0.00 98 29.9
20260906052257 23 360 0.0 0.0 0.00 1.52 0.00 98 29.9
20260906051756 23 360 0.0 0.0 0.00 1.52 0.00 98 29.9
20260906051256 23 360 0.0 0.0 0.00 1.52 0.00 98 29.9
20260906050757 23 360 0.0 0.0 0.00 1.52 0.00 98 29.9
20260906050256 23 360 0.0 0.0 0.00 1.52 0.00 98 29.9
20260906045756 23 360 0.0 0.0 0.00 1.52 1.42 98 29.9
20260906045258 23 360 0.0 0.0 0.00 1.52 1.42 98 29.9
20260906044757 23 360 0.0 0.0 0.00 1.52 1.42 98 30.0
20260906044256 23 275 0.0 0.0 0.00 1.52 1.42 98 30.0
20260906043757 23 360 0.0 0.0 0.00 1.52 1.42 98 30.0
20260906043256 23 97 0.0 1.6 0.00 1.52 1.42 98 30.0
20260906042757 24 360 0.0 0.0 0.00 1.52 1.42 98 30.0
20260906042256 24 360 0.0 0.0 0.00 1.52 1.42 98 30.0
20260906041756 24 360 0.0 0.0 0.00 1.52 1.42 98 30.0
20260906041256 24 360 0.0 0.0 0.00 1.52 1.42 98 30.0
20260906040758 24 360 0.0 0.0 0.00 1.52 1.42 98 30.0
20260906040256 24 360 0.0 1.6 0.00 1.52 1.42 99 30.0
20260906035756 23 360 0.0 0.0 0.00 1.52 1.42 98 30.0
20260906035256 23 360 0.0 0.0 0.00 1.52 1.42 98 30.0
20260906034756 23 360 0.0 0.0 0.00 1.52 1.42 98 30.0
20260906034257 23 360 0.0 0.0 0.00 1.52 1.42 98 30.0
20260906033757 23 360 0.0 0.0 0.00 1.52 1.42 98 30.0
20260906033256 23 68 0.0 0.0 0.00 1.52 1.42 98 30.0
20260906032756 23 360 0.0 0.0 0.00 1.52 1.42 98 30.0
20260906032257 23 360 0.0 0.0 0.00 1.52 1.42 98 30.0
20260906031756 24 360 0.0 0.0 0.00 1.52 1.42 97 30.0
20260906031256 24 360 0.0 0.0 0.00 1.52 1.42 97 30.0
20260906030756 24 15 0.0 1.6 0.00 1.52 1.42 97 30.0
20260906030258 24 360 0.0 0.0 0.00 1.52 1.42 97 30.0
20260906025758 24 360 0.0 0.0 0.00 1.52 1.42 97 30.0
20260906025256 24 360 0.0 0.0 0.00 1.52 1.42 96 30.0
20260906024756 24 360 0.0 0.0 0.00 1.52 1.42 96 30.0
20260906024257 24 360 0.0 0.0 0.00 1.52 1.42 97 30.0
20260906023756 24 360 0.0 0.0 0.00 1.52 1.42 97 29.9
20260906023256 24 360 0.0 0.0 0.00 1.52 1.42 97 29.9
20260906022758 24 360 0.0 0.0 0.00 1.52 1.42 96 29.9
20260906022257 24 360 0.0 0.0 0.00 1.52 1.42 96 29.9
20260906021756 25 360 0.0 0.0 0.00 1.52 1.42 96 29.9
20260906021257 25 360 0.0 0.0 0.00 1.52 1.42 95 29.9
20260906020756 24 360 0.0 0.0 0.00 1.52 1.42 95 29.9
20260906020256 24 335 0.0 1.6 0.00 1.52 1.42 96 29.9
20260906015756 24 360 0.0 0.0 0.00 1.52 1.42 96 29.9
20260906015256 24 1 0.0 1.6 0.00 1.52 1.42 97 29.9
20260906014756 24 359 1.6 1.6 0.00 1.52 1.42 97 29.9
20260906014257 24 360 0.0 0.0 0.00 1.52 1.42 97 29.9
20260906013756 24 360 0.0 0.0 0.00 1.52 1.42 97 29.9
20260906013257 24 349 0.0 1.6 0.00 1.52 1.42 97 29.9
20260906012757 24 360 0.0 0.0 0.00 1.52 1.42 97 29.9
20260906012256 25 360 0.0 0.0 0.00 1.52 1.42 97 29.9
20260906011756 25 360 0.0 0.0 0.00 1.52 1.42 97 29.9
20260906011256 25 348 0.0 0.0 0.00 1.52 1.42 96 29.9
20260906010756 24 360 0.0 0.0 0.00 1.52 1.42 96 29.9
20260906010256 24 300 0.0 3.2 0.00 1.52 1.42 96 29.9
20260906005757 24 360 0.0 0.0 0.00 1.52 1.42 96 29.9
20260906005257 24 360 0.0 0.0 0.00 1.52 1.42 96 29.9
20260906004756 25 356 0.0 1.6 0.00 1.52 1.42 96 29.9
20260906004256 25 360 0.0 0.0 0.00 1.52 1.42 95 29.9
20260906003758 25 360 0.0 0.0 0.00 1.52 1.42 96 29.9
20260906003256 25 360 0.0 0.0 0.00 1.52 1.42 95 29.9
20260906002758 25 360 0.0 0.0 0.00 1.52 1.42 95 29.9
20260906002257 25 360 0.0 0.0 0.00 1.52 1.42 94 29.9
20260906001756 25 24 0.0 1.6 0.00 1.52 1.42 95 29.9
20260906001256 25 360 0.0 0.0 0.00 1.52 1.42 95 29.9
20260906000756 25 360 0.0 0.0 0.00 1.52 1.42 94 29.9
20260906000256 25 360 0.0 0.0 0.00 1.52 1.42 94 29.9
20260905235756 25 144 1.6 3.2 0.00 1.52 1.42 93 29.9
20260905235256 25 137 0.0 1.6 0.00 1.52 1.42 92 29.9
20260905234756 25 360 0.0 0.0 0.00 1.52 1.42 92 29.9
20260905234256 26 92 0.0 0.0 0.00 1.52 1.42 92 29.9
20260905233757 26 360 0.0 0.0 0.00 1.52 1.42 91 29.9
20260905233257 26 275 0.0 1.6 0.00 1.52 1.42 90 29.9
20260905232757 27 346 0.0 1.6 0.00 1.52 1.42 85 29.9
20260905232257 28 360 0.0 0.0 0.00 1.52 1.42 83 29.9
20260905231757 28 360 0.0 0.0 0.00 1.52 1.42 82 29.9
20260905231256 28 360 0.0 0.0 0.00 1.52 1.42 82 29.9
20260905230756 28 360 0.0 0.0 0.00 1.52 1.42 82 29.9
20260905230256 28 360 0.0 0.0 0.00 1.52 1.42 81 29.9
20260905225757 28 360 0.0 0.0 0.00 1.52 1.50 82 29.9
20260905225256 27 360 0.0 0.0 0.00 1.52 1.50 83 29.9
20260905224756 27 360 0.0 0.0 0.00 1.52 1.50 82 29.9
20260905224257 27 360 0.0 0.0 0.08 1.52 1.50 84 29.9
20260905223756 26 360 0.0 0.0 0.08 1.52 1.50 89 29.9
20260905223256 25 360 0.0 0.0 0.33 1.52 1.50 92 29.9
20260905222756 24 171 0.0 0.0 0.71 1.52 1.50 93 29.9
20260905222256 23 307 3.2 4.8 0.71 1.40 1.35 94 29.9
20260905221757 23 360 0.0 0.0 0.71 1.40 1.35 95 29.9
20260905221256 23 360 0.0 0.0 0.71 1.40 1.35 95 29.9
20260905220757 23 360 0.0 0.0 0.89 1.40 1.35 95 29.9
20260905220256 23 353 0.0 3.2 1.09 1.40 1.35 95 29.9
20260905215756 23 14 0.0 0.0 1.30 1.35 1.30 94 29.9
20260905215257 23 360 0.0 0.0 1.30 1.35 1.30 93 29.9
20260905214756 22 2 1.6 3.2 1.35 1.35 1.35 93 29.9
20260905214256 22 360 0.0 0.0 1.32 1.32 1.32 93 29.9
20260905213757 23 360 0.0 0.0 1.27 1.30 1.30 91 29.9
20260905213256 23 144 3.2 4.8 1.22 1.24 1.24 88 29.9
20260905212756 23 8 3.2 6.4 1.12 1.07 1.07 86 29.9
20260905212257 24 310 3.2 6.4 1.04 1.04 1.04 87 30.0
20260905211758 25 308 6.4 9.7 0.89 0.91 0.91 81 30.0
20260905211256 25 220 1.6 4.8 0.71 0.76 0.76 88 30.0
20260905210757 26 105 1.6 3.2 0.51 0.48 0.48 83 30.0
20260905210257 30 84 3.2 8.0 0.28 0.33 0.33 75 30.0
20260905205757 35 133 3.2 6.4 0.03 0.03 0.03 58 29.9
20260905205301 37 127 1.6 4.8 0.00 0.00 0.00 47 29.9
20260905204757 37 225 0.0 1.6 0.00 0.00 0.00 46 29.9
20260905204257 38 158 0.0 3.2 0.00 0.00 0.00 45 29.9
20260905203756 38 180 1.6 3.2 0.00 0.00 0.00 46 29.9
20260905203257 38 360 0.0 0.0 0.00 0.00 0.00 43 29.9
20260905202803 37 226 1.6 3.2 0.00 0.00 0.00 46 29.9
20260905202256 37 360 0.0 0.0 0.00 0.00 0.00 47 29.9
20260905201757 37 155 3.2 4.8 0.00 0.00 0.00 47 29.9
20260905201256 37 166 0.0 0.0 0.00 0.00 0.00 46 29.9
20260905200756 37 188 3.2 4.8 0.00 0.00 0.00 48 29.9
20260905200258 37 203 3.2 6.4 0.00 0.00 0.00 45 29.9
20260905195802 37 243 1.6 3.2 0.00 0.00 0.00 48 29.9
20260905195257 37 197 3.2 3.2 0.00 0.00 0.00 50 29.9
20260905194757 37 210 1.6 4.8 0.00 0.00 0.00 47 29.9
20260905194257 37 207 1.6 4.8 0.00 0.00 0.00 51 29.9
20260905193757 37 194 3.2 6.4 0.00 0.00 0.00 49 29.9
20260905193257 37 228 1.6 4.8 0.00 0.00 0.00 49 29.9
20260905192756 38 240 3.2 4.8 0.00 0.00 0.00 46 29.9
20260905192257 37 185 1.6 4.8 0.00 0.00 0.00 47 29.9
20260905191757 37 218 0.0 1.6 0.00 0.00 0.00 49 29.9
20260905191257 36 261 3.2 4.8 0.00 0.00 0.00 49 29.9
20260905190759 36 192 3.2 6.4 0.00 0.00 0.00 49 29.9
20260905190256 36 186 3.2 6.4 0.00 0.00 0.00 52 29.9
20260905185757 36 117 0.0 3.2 0.00 0.00 0.00 51 29.9
20260905185257 36 222 1.6 3.2 0.00 0.00 0.00 50 29.9
20260905184756 36 196 3.2 4.8 0.00 0.00 0.00 53 29.9
20260905184256 36 165 4.8 6.4 0.00 0.00 0.00 51 29.9
20260905183757 36 246 3.2 6.4 0.00 0.00 0.00 51 29.9
20260905183256 36 210 3.2 4.8 0.00 0.00 0.00 52 29.9
20260905182756 36 289 1.6 3.2 0.00 0.00 0.00 53 30.0
20260905182257 36 199 1.6 3.2 0.00 0.00 0.00 53 30.0
20260905181756 36 241 3.2 6.4 0.00 0.00 0.00 54 30.0
20260905181256 35 199 0.0 3.2 0.00 0.00 0.00 55 30.0
20260905180758 35 174 0.0 3.2 0.00 0.00 0.00 57 30.0
20260905180256 35 184 3.2 6.4 0.00 0.00 0.00 54 30.0
20260905175756 35 156 3.2 6.4 0.00 0.00 0.00 56 30.0
20260905175257 35 173 4.8 6.4 0.00 0.00 0.00 56 30.0
20260905174757 35 153 1.6 4.8 0.00 0.00 0.00 56 30.0
20260905174258 35 178 4.8 8.0 0.00 0.00 0.00 57 30.0
20260905173756 34 154 1.6 4.8 0.00 0.00 0.00 60 30.0
20260905173257 34 153 1.6 4.8 0.00 0.00 0.00 62 30.0
20260905172756 33 151 1.6 3.2 0.00 0.00 0.00 62 30.0
20260905172257 33 151 1.6 4.8 0.00 0.00 0.00 62 30.0
20260905171756 33 166 4.8 6.4 0.00 0.00 0.00 61 30.0
20260905171257 33 162 4.8 6.4 0.00 0.00 0.00 60 30.0
20260905170756 33 205 0.0 3.2 0.00 0.00 0.00 62 30.0
20260905170257 32 140 0.0 3.2 0.00 0.00 0.00 64 30.0
20260905165758 32 149 1.6 6.4 0.00 0.00 0.00 65 30.0
20260905165257 32 152 3.2 6.4 0.00 0.00 0.00 65 30.0
20260905164758 32 195 3.2 4.8 0.00 0.00 0.00 66 30.0
20260905164257 32 123 0.0 1.6 0.00 0.00 0.00 66 30.0
20260905163757 32 152 0.0 3.2 0.00 0.00 0.00 68 30.0
20260905163256 32 146 0.0 3.2 0.00 0.00 0.00 69 30.0
20260905162757 31 167 1.6 6.4 0.00 0.00 0.00 69 30.0
20260905162257 31 185 0.0 0.0 0.00 0.00 0.00 71 30.0
20260905161757 31 273 1.6 4.8 0.00 0.00 0.00 71 30.0
20260905161257 31 232 1.6 4.8 0.00 0.00 0.00 71 30.0
20260905160757 31 222 0.0 3.2 0.00 0.00 0.00 71 30.0
20260905160256 31 191 1.6 3.2 0.00 0.00 0.00 72 30.0
20260905155756 30 219 1.6 3.2 0.00 0.00 0.00 74 30.0
20260905155256 30 175 0.0 3.2 0.00 0.00 0.00 72 30.0
20260905154756 30 167 1.6 4.8 0.00 0.00 0.00 75 30.0
20260905154257 30 122 0.0 1.6 0.00 0.00 0.00 76 30.0
20260905153756 29 227 1.6 3.2 0.00 0.00 0.00 75 30.0
20260905153256 29 194 1.6 3.2 0.00 0.00 0.00 76 30.0
20260905152756 29 156 1.6 3.2 0.00 0.00 0.00 77 30.0
20260905152257 28 180 3.2 4.8 0.00 0.00 0.00 76 30.0
20260905151756 28 178 0.0 0.0 0.00 0.00 0.00 77 30.0
20260905151257 28 196 0.0 3.2 0.00 0.00 0.00 78 30.0
20260905150758 28 182 1.6 4.8 0.00 0.00 0.00 78 30.0
20260905150257 28 148 0.0 1.6 0.00 0.00 0.00 78 30.0
20260905145756 28 152 0.0 3.2 0.00 0.00 0.00 81 30.0
20260905145256 28 204 1.6 3.2 0.00 0.00 0.00 79 30.0
20260905144757 28 220 0.0 3.2 0.00 0.00 0.00 81 30.0
20260905144257 27 210 0.0 4.8 0.00 0.00 0.00 80 30.0
20260905143759 27 316 1.6 3.2 0.00 0.00 0.00 79 30.0
20260905143257 27 267 1.6 3.2 0.00 0.00 0.00 80 30.0
20260905142759 27 267 1.6 3.2 0.00 0.00 0.00 81 30.0
20260905142257 27 182 1.6 3.2 0.00 0.00 0.00 83 30.0
20260905141757 27 360 0.0 0.0 0.00 0.00 0.00 83 30.0
20260905141257 26 269 0.0 0.0 0.00 0.00 0.00 84 30.0
20260905140757 26 288 1.6 3.2 0.00 0.00 0.00 84 30.0
20260905140257 26 226 0.0 1.6 0.00 0.00 0.00 84 30.0
20260905135757 26 202 0.0 1.6 0.00 0.00 0.00 85 30.0
20260905135256 26 196 1.6 3.2 0.00 0.00 0.00 86 30.0
20260905134756 26 300 0.0 3.2 0.00 0.00 0.00 86 30.0
20260905134257 26 282 1.6 3.2 0.00 0.00 0.00 87 30.0
20260905133756 26 360 0.0 0.0 0.00 0.00 0.00 87 30.0
20260905133257 26 169 1.6 3.2 0.00 0.00 0.00 88 30.0
20260905132756 25 208 0.0 3.2 0.00 0.00 0.00 89 30.0
20260905132256 25 179 0.0 0.0 0.00 0.00 0.00 91 30.0